Flag for U.S.A. Weather past 2 weeks in Denver, Colorado, U.S.A.

Now
29 °F

Broken clouds.


Feels Like: 21 °F
Forecast: 26 / 40 °F
Wind: 8 mph from South

Location: Buckley Air Force Base

Current Time: Dec 22, 2014 at 9:28:20 AM

Latest Report: Dec 22, 2014 at 7:58 AM


Visibility: 10 mi

Pressure: 29.72 "Hg

Humidity: 90%

Dew point: 26 °F

Location of DenverLocation

Historic Weather in Denver — Graph

°F

Denver temperature yesterday

Maximum temperature yesterday: 50 °F (at 12:58 PM)
Minimum temperature yesterday: 28 °F (at 3:58 AM)
Average temperature yesterday: 39 °F

Past Weeks' High & Low Weather Summary

 TemperatureHumidityPressure
High66 °F (Dec 12, 2:58 PM)100% (Dec 14, 10:58 AM)30.39 "Hg (Dec 14, 10:58 AM)
Low19 °F (Dec 15, 11:58 PM)9% (Dec 10, 12:58 PM)29.52 "Hg (Dec 21, 1:58 PM)
Average36 °F57%30.01 "Hg
* Reported Dec 7 7:58 AM — Dec 22 7:58 AM, Denver, Weather by CustomWeather, © 2014

Note: Actual official high and low records may vary slightly from our data, if they occured in-between our weather recording intervals... More about our weather records

Advertising

Denver weather history for previous 24 hours

 ConditionsComfort  
Time TempWeatherWind HumidityBarometerVisibility
7:58 AM
Dec 22
29 °FBroken clouds.8 mph90%29.72 "Hg10 mi
6:58 AM28 °FPartly cloudy.5 mph89%29.73 "Hg10 mi
5:58 AM29 °FPassing clouds.1 mph82%29.73 "Hg10 mi
4:58 AM32 °FPassing clouds.2 mph76%29.71 "Hg10 mi
3:58 AM33 °FPassing clouds.3 mph80%29.68 "Hg10 mi
2:58 AM34 °FOvercast.2 mph87%29.69 "Hg10 mi
1:58 AM33 °FPartly cloudy.7 mph99%29.68 "Hg10 mi
12:58 AM33 °FPartly cloudy.10 mph99%29.65 "Hg10 mi
11:58 PM
Dec 21
32 °FMostly cloudy.1 mphN/A29.66 "Hg10 mi
11:04 PM32 °FMostly cloudy.7 mph100%29.69 "Hg10 mi
9:58 PM37 °FLight rain. Mostly cloudy.9 mph99%29.61 "Hg10 mi
9:01 PM41 °FLight rain. Partly cloudy.8 mph76%29.65 "Hg10 mi
7:58 PM45 °FPassing clouds.18 mph57%29.57 "Hg10 mi
6:58 PM44 °FPartly cloudy.12 mph53%29.54 "Hg10 mi
5:58 PM44 °FPartly cloudy.17 mph49%29.54 "Hg10 mi
4:58 PM46 °FPartly cloudy.10 mph45%29.54 "Hg10 mi
3:58 PM46 °FPartly sunny.14 mph43%29.54 "Hg10 mi
2:58 PM48 °FPartly sunny.25 mph41%29.52 "Hg10 mi
1:58 PM48 °FPartly sunny.15 mph37%29.52 "Hg10 mi
12:58 PM50 °FPartly sunny.6 mph31%29.54 "Hg10 mi
11:58 AM45 °FPartly sunny.5 mph36%29.58 "Hg10 mi
10:58 AM47 °FBroken clouds.7 mph33%29.59 "Hg10 mi
9:58 AM44 °FPartly sunny.8 mph35%29.64 "Hg10 mi
Weather by CustomWeather, © 2014

See weather overviewHow to use our weather pages